Fargo, ND

5:28 PM CDT on October 13, 2019 (GMT -0500)
Hector International

Weather History for KFAR - August, 2019

Change the Weather History Date:

Friday, August 2, 2019

  Actual Average Record
Temperature  
Mean Temperature 75 °F 71 °F  
Max Temperature 82 °F 83 °F 102 °F (1982)
Min Temperature 67 °F 59 °F 40 °F (2018)
Degree Days  
Heating Degree Days 0 0  
Month to date heating degree days 0 0  
Since 1 June heating degree days 64 89  
Since 1 July heating degree days 6 16  
Cooling Degree Days 10 7  
Month to date cooling degree days 20 14  
Year to date cooling degree days 398 354  
Since 1 June cooling degree days 388 323  
Growing Degree Days 23 (Base 50)    
Moisture  
Dew Point 68 °F    
Average Humidity 79    
Maximum Humidity 100    
Minimum Humidity 58    
Precipitation  
Precipitation 0.83 in 0.07 in 3.07 in (1944)
Month to date precipitation 0.83 0.14  
Year to date precipitation 17.17 13.61  
Snow  
Snow 0.00 in 0.00 in 0.00 in ()
Month to date snowfall 0.0 0.0  
Since 1 June snowfall 0.0 0.0  
Since 1 July snowfall 0.0 0.0  
Snow Depth 0.00 in    
Sea Level Pressure  
Sea Level Pressure 30.08 in    
Wind  
Wind Speed 7 mph (SSE)    
Max Wind Speed 18 mph    
Max Gust Speed 25 mph    
Visibility 9 miles    
Events Rain , Thunderstorm    
T = Trace of Precipitation, MM = Missing Value Source: NWS Daily Summary

Daily Weather History Graph

Daily Weather History Graph

Search for Another Location

Airport or City:

Astronomy

Aug. 02, 2019 Rise Set
Actual Time 6:07 AM CDT 8:58 PM CDT
Civil Twilight 5:32 AM CDT 9:33 PM CDT
Nautical Twilight 4:47 AM CDT 10:18 PM CDT
Astronomical Twilight 3:53 AM CDT 11:11 PM CDT
Moon 7:51 AM CDT (8/2) 10:21 PM CDT (8/2)
Length of Visible Light 16h 00m
Length of Day
14h 50m
Waxing Crescent, 4% of the Moon is Illuminated
Aug 2
Waxing Crescent
Aug 7
First Quarter
Aug 15
Full
Aug 23
Last Quarter
Aug 30
New

Hourly Weather History & Observations

Time (CDT) Temp. Heat Index Dew Point Humidity Pressure Visibility Wind Dir Wind Speed Gust Speed Precip Events Conditions
12:53 AM 75.0 °F - 69.1 °F 82% 30.07 in 10.0 mi South 8.1 mph - N/A   Overcast
1:53 AM 73.9 °F - 69.1 °F 85% 30.06 in 10.0 mi SSE 5.8 mph - N/A   Scattered Clouds
2:53 AM 73.0 °F - 69.1 °F 87% 30.05 in 10.0 mi ESE 4.6 mph - N/A   Clear
4:09 AM 73.0 °F - 69.1 °F 87% 30.06 in 10.0 mi SSE 3.5 mph - N/A Thunderstorm Mostly Cloudy
4:24 AM 73.0 °F - 69.1 °F 87% 30.06 in 10.0 mi SW 8.1 mph - N/A   Overcast
4:41 AM 69.1 °F - 66.0 °F 90% 30.09 in 7.0 mi West 17.3 mph - 0.00 in Rain , Thunderstorm Light Thunderstorms and Rain
4:47 AM 68.0 °F - 66.2 °F 94% 30.10 in 2.5 mi West 12.7 mph - 0.05 in Rain , Thunderstorm Heavy Thunderstorms and Rain
4:50 AM 68.0 °F - 66.2 °F 94% 30.11 in 1.5 mi WNW 9.2 mph - 0.10 in Rain , Thunderstorm Heavy Rain
4:53 AM 66.9 °F - 66.0 °F 97% 30.10 in 1.0 mi NW 13.8 mph 21.9 mph 0.18 in Rain , Thunderstorm Heavy Rain
5:12 AM 66.9 °F - 66.0 °F 97% 30.09 in 2.0 mi NNW 16.1 mph - 0.46 in Rain , Thunderstorm Heavy Rain
5:21 AM 68.0 °F - 66.9 °F 96% 30.09 in 6.0 mi NNW 15.0 mph 25.3 mph 0.48 in Rain , Thunderstorm Rain
5:40 AM 68.0 °F - 66.9 °F 96% 30.09 in 6.0 mi WNW 10.4 mph - 0.51 in Rain Rain
5:53 AM 68.0 °F - 66.0 °F 93% 30.09 in 9.0 mi WNW 8.1 mph - 0.54 in Rain Light Rain
6:53 AM 66.9 °F - 66.9 °F 100% 30.11 in 6.0 mi East 4.6 mph - 0.06 in Rain Rain
7:53 AM 68.0 °F - 66.0 °F 93% 30.10 in 10.0 mi SE 9.2 mph - 0.05 in Rain Light Rain
8:53 AM 69.1 °F - 66.9 °F 93% 30.08 in 10.0 mi East 5.8 mph - 0.00 in   Clear
9:53 AM 72.0 °F - 68.0 °F 87% 30.07 in 10.0 mi SSE 8.1 mph - N/A   Mostly Cloudy
10:53 AM 75.0 °F - 66.9 °F 76% 30.07 in 10.0 mi SSE 4.6 mph - N/A   Partly Cloudy
11:53 AM 79.0 °F - 66.0 °F 64% 30.08 in 10.0 mi SW 6.9 mph - N/A   Partly Cloudy
12:53 PM 80.1 °F 81.7 °F 64.0 °F 58% 30.09 in 10.0 mi Variable 5.8 mph - N/A   Clear
1:53 PM 80.1 °F 82.3 °F 66.9 °F 64% 30.08 in 10.0 mi ESE 8.1 mph - N/A   Partly Cloudy
2:53 PM 79.0 °F - 66.9 °F 66% 30.09 in 10.0 mi SSE 9.2 mph 19.6 mph N/A   Mostly Cloudy
3:53 PM 79.0 °F - 69.1 °F 72% 30.07 in 10.0 mi SE 10.4 mph - N/A   Mostly Cloudy
4:53 PM 78.1 °F - 66.9 °F 68% 30.08 in 10.0 mi SE 11.5 mph - N/A   Scattered Clouds
5:53 PM 77.0 °F - 68.0 °F 74% 30.06 in 10.0 mi SE 8.1 mph - N/A   Overcast
6:53 PM 75.9 °F - 70.0 °F 82% 30.06 in 10.0 mi SE 5.8 mph - 0.00 in Rain Light Rain
7:53 PM 77.0 °F - 70.0 °F 79% 30.06 in 10.0 mi SSE 8.1 mph - 0.00 in   Partly Cloudy
8:53 PM 73.9 °F - 71.1 °F 91% 30.05 in 10.0 mi South 5.8 mph - N/A   Clear
9:53 PM 73.9 °F - 70.0 °F 87% 30.07 in 10.0 mi ESE 4.6 mph - N/A   Clear
10:53 PM 73.0 °F - 70.0 °F 90% 30.07 in 10.0 mi SSE 6.9 mph - N/A   Clear
11:53 PM 71.1 °F - 69.1 °F 93% 30.08 in 10.0 mi ESE 4.6 mph - N/A   Clear